Location: Bagnolo
(44.7500°N, 7.3167°E)
Time: 03:00:52
(UTC+00:00)

Daily predictions for brighter satellites

Satellite Brightness Start Highest point End
(mag) Time Altitude Azimuth Time Altitude Azimuth Time Altitude Azimuth
Cosmos 2278 Rocket 4.5 02:03:30 19° NNE 02:03:30 19° NNE 02:05:01 10° NNE
Cosmos 2344 3.9 02:37:36 55° N 02:37:36 55° N 02:43:30 10° NE
SeaSat 1 4.0 02:46:49 10° NE 02:49:47 33° ENE 02:49:47 33° ENE
Cosmos 1943 Rocket 3.5 02:58:15 33° NNE 02:58:15 33° NNE 03:01:14 10° NNE
NOSS 3-2 (C) 4.2 02:59:45 41° N 02:59:45 41° N 03:04:09 10° NNE
Cosmos 1459 Rocket 4.5 02:52:04 10° N 02:56:59 54° NNE 02:56:59 54° NNE
CZ-4C R/B 4.1 03:11:01 19° NNW 03:11:01 19° NNW 03:14:44 10° NNE
Envisat 4.2 03:05:58 10° NNE 03:08:50 35° NNE 03:08:50 35° NNE
ATLAS CENTAUR R/B 4.0 03:19:12 11° NNE 03:19:12 11° NNE 03:19:26 10° NNE
CENTAUR R/B 3.9 03:20:50 26° NNW 03:21:11 26° NNW 03:27:19 10° NNE
CZ-2C R/B 3.7 03:17:01 10° NNE 03:19:20 30° N 03:19:20 30° N
Cosmos 1484 Rocket 4.4 03:23:35 10° NNE 03:26:44 32° E 03:26:44 32° E
PAYLOAD A 4.3 03:21:52 10° NNE 03:26:31 67° N 03:26:31 67° N
Cosmos 1818 3.9 03:26:51 49° N 03:28:10 65° NE 03:33:35 10° SE
DMSP B5D2-2 4.2 03:32:24 66° N 03:32:24 66° N 03:36:54 10° NNW
Meteor 2-15 4.3 03:27:40 10° N 03:33:50 88° E 03:39:59 10° S
ISS -1.2 03:35:50 20° NE 03:35:50 20° NE 03:37:26 10° ENE
NOAA 11 4.3 03:37:06 10° N 03:41:47 56° NW 03:41:47 56° NW
Milstar 3 Cent rocket 4.3 03:42:39 15° S 03:42:39 15° S 03:45:39 10° SE
Cosmos 2278 Rocket 3.9 03:45:20 19° NNW 03:45:20 19° NNW 03:48:14 10° N
H-2A R/B 4.4 03:44:37 10° NE 03:47:34 27° E 03:48:55 21° SE
Cosmos 1802 Rocket 3.8 03:41:34 10° NNW 03:47:40 64° W 03:49:19 47° SSW
Cosmos 2233 Rocket 4.1 03:42:49 10° N 03:49:03 74° E 03:55:12 10° SSE
Cosmos 1606 3.2 03:53:32 52° ENE 03:53:32 52° ENE 03:56:38 10° NNE
Cosmos 2369 Rocket 2.2 03:51:10 39° SSW 03:53:23 79° ESE 03:59:07 10° NNE
USA 238 DEB 3.9 03:54:19 44° WNW 03:55:19 47° NW 04:01:55 10° NNE
USA 238 3.9 03:54:24 44° WNW 03:55:25 47° NW 04:02:01 10° NNE
Cosmos 2228 3.0 03:56:16 64° S 03:56:55 82° E 04:01:16 10° N
Cosmos 2123 Rocket 3.9 03:56:02 49° SW 03:57:22 60° WNW 04:03:30 10° N
Lacrosse 5 rocket 3.2 03:57:11 17° N 03:58:09 19° NNE 04:00:50 10° ENE
Meteor 2-3 Rocket 3.8 03:52:31 10° N 03:58:10 75° ENE 04:03:44 10° SSE
Cosmos 1656 Rocket 3.6 03:57:28 51° SW 03:58:56 78° WNW 04:04:37 10° NNE
Meteor 2-1 Rocket 4.2 03:57:38 39° SSW 03:59:56 72° WNW 04:05:50 10° N
Timation 1 Rocket 4.3 03:54:02 10° NNW 04:00:03 84° ENE 04:06:01 10° SSE
Cosmos 2297 3.6 04:02:02 51° WSW 04:03:15 65° WNW 04:08:53 10° NNE
BREEZE-M R/B 4.4 04:03:26 41° W 04:05:59 75° NNW 04:18:37 10° ENE
Cosmos 1302 Rocket 4.3 04:06:08 46° WNW 04:06:18 46° WNW 04:11:24 10° N
YAOGAN 11 3.8 04:03:05 10° S 04:07:19 73° WSW 04:11:36 10° NNW
Cosmos 2263 4.3 04:04:11 21° SSW 04:08:06 76° ESE 04:13:47 10° NNE
Cosmos 724 4.1 04:07:22 21° NW 04:11:16 66° WSW 04:16:58 10° SSE
Cosmos 1992 Rocket 3.8 04:12:15 33° SSW 04:14:39 76° WNW 04:19:52 10° NNE
Cosmos 1607 4.2 04:13:33 25° WNW 04:17:01 47° WSW 04:23:03 10° S
Meteor 2-8 Rocket 4.4 04:11:19 10° NNW 04:17:15 58° W 04:23:10 10° S
Cosmos 2016 Rocket 4.2 04:12:42 10° NNW 04:18:36 45° W 04:24:24 10° SSW
Okean 1-7 Rocket 3.5 04:14:33 10° NNW 04:18:54 61° W 04:23:11 10° S
Cosmos 1544 2.9 04:17:33 10° N 04:20:37 65° E 04:23:39 10° SSE
H-2A R/B 1.9 04:15:43 10° NNE 04:20:53 89° WNW 04:25:52 10° SSW
SWAS 4.2 04:20:00 44° SW 04:21:15 77° WNW 04:25:28 10° NNE
Cosmos 1862 3.7 04:20:37 10° N 04:24:26 61° E 04:28:14 10° SSE
ARIANE 5 R/B 2.9 04:20:58 10° NNE 04:25:57 62° ESE 04:30:58 10° S
USA 290 4.5 04:29:15 14° NNW 04:29:15 14° NNW 04:29:57 10° N
SeaSat 1 3.4 04:24:41 10° N 04:28:50 28° NW 04:29:31 27° WNW
Meteor 1-27 4.3 04:24:39 10° S 04:30:30 84° E 04:36:22 10° NNE
Cosmos 1725 Rocket 4.5 04:27:15 10° NNW 04:32:51 35° W 04:38:24 10° SSW
Cosmos 1486 Rocket 3.9 04:28:44 10° NNW 04:34:05 87° WSW 04:39:22 10° SSE
Cosmos 2346 Rocket 4.4 04:32:47 10° S 04:38:51 88° E 04:44:57 10° N
SL-8 R/B 3.8 04:36:49 30° W 04:39:04 65° NNW 04:43:49 10° ENE
Cosmos 1943 Rocket 3.9 04:39:45 14° NW 04:40:31 14° NW 04:43:22 10° N
Cosmos 1726 Rocket 3.8 04:36:28 10° S 04:40:52 72° E 04:45:19 10° NNE
Cosmos 1758 Rocket 4.0 04:37:40 10° NNW 04:41:35 34° W 04:45:27 10° SSW
NOSS 2-3 (E) 3.7 04:40:21 11° SSW 04:43:49 60° ESE 04:47:48 10° NE
JB-3 4.3 04:43:18 10° S 04:47:18 83° WSW 04:51:24 10° NNW
USA 276 3.1 04:47:34 21° NNW 04:47:46 21° N 04:49:38 10° NE
Cosmos 1602 Rocket 4.2 04:46:37 10° NNW 04:50:29 31° W 04:54:18 10° SSW
Cosmos 1500 3.0 04:52:05 10° N 04:55:36 82° E 04:59:03 10° S
COSMO-SKYMED 1 2.5 04:54:44 10° S 04:59:02 64° W 05:03:22 10° NNW
CZ-2C R/B 4.3 04:57:58 10° NW 04:58:40 11° NW 04:58:40 11° NW
NOSS 2-2 (D) 3.4 04:56:17 10° SSW 04:59:36 57° SE 05:02:43 10° NE
Cosmos 1891 Rocket 4.4 04:54:27 10° NNW 05:00:34 71° W 05:06:33 10° S
Cosmos 1484 Rocket 4.1 04:57:54 10° NNW 05:00:45 20° WNW 05:01:35 19° W
Cosmos 1354 Rocket 4.2 04:55:42 10° NNW 05:00:59 78° ENE 05:06:16 10° SSE
Cosmos 2151 3.0 04:59:52 10° N 05:04:06 81° E 05:08:19 10° S
Cosmos 371 Rocket 3.4 05:01:05 10° NNW 05:05:57 78° ENE 05:10:45 10° SSE
USA 307 4.2 05:04:35 10° NNW 05:06:27 16° NNE 05:08:09 10° NE
PSLV R/B 4.4 05:02:56 10° NNE 05:07:07 53° E 05:11:18 10° S
Cosmos 1072 Rocket 4.5 05:01:19 10° N 05:07:35 80° W 05:13:55 10° S
Cosmos 1939 Rocket 3.6 05:04:42 10° N 05:08:15 30° WNW 05:11:44 10° SW
ISS -3.1 05:08:46 12° NW 05:11:51 53° NNE 05:15:10 10° ESE
CZ-2D R/B 3.3 05:10:07 10° N 05:14:08 62° WNW 05:18:02 10° SSW
FAST Rocket 4.2 05:11:00 10° N 05:14:24 83° E 05:17:02 10° S
NOSS 2-2 (E) 2.8 05:11:41 10° SW 05:14:54 58° NW 05:18:02 10° NNE
Cosmos 1606 Rocket 4.2 05:13:36 10° SW 05:17:41 35° WNW 05:21:47 10° N
Spot 4 Rocket 4.3 05:13:08 10° NNE 05:18:17 74° ESE 05:23:24 10° S
Cosmos 1867 3.8 05:14:31 10° SW 05:19:50 52° NW 05:25:12 10° NNE
H-2A R/B 4.0 05:17:45 10° NNW 05:20:05 18° WNW 05:22:25 10° WSW
Cosmos 2058 Rocket 3.1 05:15:49 10° S 05:20:19 82° W 05:24:50 10° N
Helios 1A 3.3 05:16:57 10° S 05:20:47 40° W 05:24:40 10° NNW
Cosmos 2297 Rocket 3.9 05:18:52 10° N 05:24:00 34° NE 05:29:05 10° ESE
Cosmos 1825 Rocket 4.3 05:20:55 10° NNW 05:24:40 29° W 05:28:24 10° SSW
TSX-5 4.2 05:21:05 10° SSW 05:24:53 73° ESE 05:29:42 10° NNE
Meteor 2-14 Rocket 4.4 05:20:23 10° SSW 05:26:23 65° W 05:32:25 10° N
Cosmos 1503 Rocket 4.3 05:24:36 10° NNW 05:29:37 46° WSW 05:34:39 10° S
USA 234 3.7 05:24:32 10° NE 05:31:04 66° SE 05:37:33 10° SW
APEX 4.0 05:28:45 10° NW 05:32:27 33° WSW 05:36:06 10° S
USA 32 4.3 05:31:32 10° SSW 05:36:35 49° W 05:41:41 10° N
Cosmos 304 Rocket 3.8 05:32:07 10° NNW 05:36:54 68° WSW 05:41:39 10° S
Lacrosse 5 rocket 1.0 05:33:24 10° NW 05:36:58 88° SW 05:40:40 10° SE
Cosmos 2369 Rocket 3.6 05:33:53 10° W 05:38:04 21° NW 05:42:17 10° N
SJ-11-01 4.3 05:35:46 10° N 05:40:23 64° WNW 05:44:58 10° SSW
Cosmos 1953 Rocket 4.3 05:36:54 10° NNW 05:40:54 33° W 05:44:54 10° SSW
